When you browse on this site, cookies collect data to enhance your experience and personalize the content and advertising you see.
Visit our Privacy Policy to learn more. By continuing to use the site, you agree to this use of cookies and data.
  • En España
  • Lista de países
  • Para 7 días
  • Temperatura del agua
  • El tiempo en el mapa
  • Informadores
  • user-avatar
    Iniciar sesión

    Tiempo cada hora Cumaná

    Hoy, 28 Mayo, Jueves

    Tiempo Temperatura Precipitaciones Viento Presión Humedad
    00:00 +27°C° 0 mm 2 mps 752 mmHg 85%
    01:00 +27°C° 0 mm 3 mps 752 mmHg 85%
    02:00 +27°C° 0 mm 3 mps 751 mmHg 85%
    03:00 +27°C° 0 mm 3 mps 751 mmHg 86%
    04:00 +27°C° 0 mm 3 mps 751 mmHg 87%
    05:00 +26°C° 0 mm 3 mps 751 mmHg 87%
    06:00 +28°C° 0 mm 3 mps 752 mmHg 83%
    07:00 +29°C° 0 mm 3 mps 752 mmHg 78%
    08:00 +30°C° 0 mm 3 mps 753 mmHg 73%
    09:00 +33°C° 0 mm 3 mps 753 mmHg 66%
    10:00 +34°C° 0 mm 3 mps 753 mmHg 60%
    11:00 +36°C° 0 mm 3 mps 753 mmHg 53%
    12:00 +35°C° 0 mm 3 mps 752 mmHg 55%
    13:00 +35°C° 0 mm 3 mps 751 mmHg 58%
    14:00 +34°C° 0 mm 3 mps 750 mmHg 60%
    15:00 +34°C° 0 mm 4 mps 750 mmHg 62%
    16:00 +33°C° 0 mm 4 mps 750 mmHg 64%
    17:00 +33°C° 0 mm 4 mps 750 mmHg 66%
    18:00 +32°C° 0 mm 4 mps 750 mmHg 72%
    19:00 +29°C° 0 mm 4 mps 751 mmHg 77%
    20:00 +28°C° 0 mm 5 mps 751 mmHg 83%
    21:00 +28°C° 0 mm 5 mps 751 mmHg 81%
    22:00 +28°C° 0 mm 5 mps 752 mmHg 78%
    23:00 +28°C° 0 mm 5 mps 752 mmHg 76%

    Mañana, 29 Mayo, Viernes

    Tiempo Temperatura Precipitaciones Viento Presión Humedad
    00:00 +28°C° 0 mm 5 mps 752 mmHg 76%
    01:00 +28°C° 0 mm 4 mps 752 mmHg 76%
    02:00 +28°C° 0 mm 4 mps 751 mmHg 76%
    03:00 +27°C° 0 mm 4 mps 751 mmHg 76%
    04:00 +27°C° 0 mm 4 mps 751 mmHg 76%
    05:00 +27°C° 0 mm 3 mps 751 mmHg 76%
    06:00 +28°C° 0 mm 3 mps 751 mmHg 72%
    07:00 +29°C° 0 mm 2 mps 752 mmHg 69%
    08:00 +30°C° 0 mm 2 mps 752 mmHg 65%
    09:00 +31°C° 0 mm 2 mps 752 mmHg 60%
    10:00 +34°C° 0 mm 2 mps 752 mmHg 55%
    11:00 +35°C° 0 mm 2 mps 752 mmHg 51%
    12:00 +35°C° 0 mm 3 mps 752 mmHg 53%
    13:00 +34°C° 0 mm 3 mps 751 mmHg 56%
    14:00 +34°C° 0 mm 3 mps 750 mmHg 58%
    15:00 +34°C° 0 mm 3 mps 750 mmHg 61%
    16:00 +33°C° 0 mm 4 mps 750 mmHg 64%
    17:00 +33°C° 0 mm 4 mps 749 mmHg 67%
    18:00 +30°C° 0 mm 4 mps 750 mmHg 75%
    19:00 +29°C° 0 mm 4 mps 751 mmHg 83%
    20:00 +27°C° 0 mm 4 mps 751 mmHg 91%
    21:00 +27°C° 0 mm 4 mps 752 mmHg 88%
    22:00 +27°C° 0 mm 5 mps 752 mmHg 84%
    23:00 +27°C° 0 mm 5 mps 753 mmHg 81%

    Pasado mañana, 30 Mayo, Sábado

    Tiempo Temperatura Precipitaciones Viento Presión Humedad
    00:00 +27°C° 0 mm 5 mps 752 mmHg 78%
    01:00 +27°C° 0 mm 5 mps 752 mmHg 76%
    02:00 +26°C° 0 mm 5 mps 752 mmHg 74%
    03:00 +26°C° 0 mm 4 mps 752 mmHg 83%
    04:00 +26°C° 0 mm 3 mps 752 mmHg 82%
    05:00 +26°C° 0 mm 3 mps 752 mmHg 82%
    06:00 +28°C° 0 mm 2 mps 752 mmHg 76%
    07:00 +29°C° 0 mm 2 mps 752 mmHg 71%
    08:00 +31°C° 0 mm 1 mps 752 mmHg 66%
    09:00 +32°C° 0 mm 1 mps 752 mmHg 61%
    10:00 +35°C° 0 mm 2 mps 752 mmHg 56%
    11:00 +36°C° 0 mm 2 mps 752 mmHg 50%
    12:00 +35°C° 0.1 mm 3 mps 752 mmHg 57%
    13:00 +34°C° 0.1 mm 3 mps 751 mmHg 64%
    14:00 +33°C° 0.1 mm 3 mps 750 mmHg 71%
    15:00 +32°C° 1 mm 4 mps 750 mmHg 75%
    16:00 +32°C° 1 mm 5 mps 750 mmHg 80%
    17:00 +32°C° 1 mm 6 mps 750 mmHg 84%
    18:00 +30°C° 1 mm 6 mps 750 mmHg 87%
    19:00 +28°C° 1 mm 6 mps 751 mmHg 90%
    20:00 +27°C° 1 mm 6 mps 751 mmHg 93%
    21:00 +27°C° 0.6 mm 6 mps 752 mmHg 93%
    22:00 +27°C° 0.6 mm 5 mps 752 mmHg 93%
    23:00 +27°C° 0.6 mm 5 mps 752 mmHg 93%

    31 Mayo, Domingo

    Tiempo Temperatura Precipitaciones Viento Presión Humedad
    00:00 +27°C° 0.3 mm 5 mps 752 mmHg 92%
    01:00 +27°C° 0.3 mm 4 mps 752 mmHg 92%
    02:00 +27°C° 0.3 mm 4 mps 751 mmHg 92%
    03:00 +27°C° 0.3 mm 3 mps 751 mmHg 92%
    04:00 +27°C° 0.3 mm 3 mps 751 mmHg 92%
    05:00 +26°C° 0.3 mm 2 mps 751 mmHg 92%
    06:00 +27°C° 0 mm 2 mps 752 mmHg 90%
    07:00 +28°C° 0 mm 2 mps 752 mmHg 88%
    08:00 +28°C° 0 mm 2 mps 753 mmHg 86%
    09:00 +31°C° 0 mm 2 mps 753 mmHg 75%
    10:00 +34°C° 0 mm 2 mps 753 mmHg 63%
    11:00 +36°C° 0 mm 2 mps 753 mmHg 52%
    12:00 +35°C° 0.4 mm 2 mps 752 mmHg 60%
    13:00 +34°C° 0.4 mm 3 mps 752 mmHg 69%
    14:00 +33°C° 0.4 mm 3 mps 751 mmHg 78%
    15:00 +33°C° 1.2 mm 3 mps 751 mmHg 81%
    16:00 +32°C° 1.2 mm 4 mps 750 mmHg 84%
    17:00 +30°C° 1.2 mm 4 mps 750 mmHg 87%
    18:00 +29°C° 0.6 mm 5 mps 750 mmHg 90%
    19:00 +28°C° 0.6 mm 5 mps 751 mmHg 92%
    20:00 +27°C° 0.6 mm 5 mps 751 mmHg 95%
    21:00 +27°C° 0.1 mm 5 mps 752 mmHg 95%
    22:00 +27°C° 0.1 mm 5 mps 752 mmHg 94%
    23:00 +26°C° 0.1 mm 5 mps 752 mmHg 93%

    1 Junio, Lunes

    Tiempo Temperatura Precipitaciones Viento Presión Humedad
    00:00 +26°C° 0 mm 5 mps 752 mmHg 93%
    01:00 +26°C° 0 mm 5 mps 752 mmHg 92%
    02:00 +26°C° 0 mm 5 mps 751 mmHg 91%
    03:00 +26°C° 0 mm 4 mps 751 mmHg 91%
    04:00 +26°C° 0 mm 4 mps 751 mmHg 91%
    05:00 +25°C° 0 mm 3 mps 751 mmHg 91%
    06:00 +27°C° 0 mm 3 mps 752 mmHg 87%
    07:00 +28°C° 0 mm 3 mps 752 mmHg 83%
    08:00 +29°C° 0 mm 3 mps 753 mmHg 79%
    09:00 +31°C° 0 mm 3 mps 753 mmHg 71%
    10:00 +34°C° 0 mm 3 mps 753 mmHg 63%
    11:00 +35°C° 0 mm 3 mps 753 mmHg 56%
    12:00 +35°C° 0.1 mm 3 mps 752 mmHg 59%
    13:00 +34°C° 0.1 mm 3 mps 752 mmHg 63%
    14:00 +34°C° 0.1 mm 3 mps 751 mmHg 66%
    15:00 +33°C° 0.1 mm 3 mps 750 mmHg 70%
    16:00 +33°C° 0.1 mm 4 mps 750 mmHg 74%
    17:00 +32°C° 0.1 mm 4 mps 750 mmHg 77%
    18:00 +30°C° 0 mm 4 mps 750 mmHg 83%
    19:00 +28°C° 0 mm 4 mps 751 mmHg 88%
    20:00 +27°C° 0 mm 5 mps 751 mmHg 93%
    21:00 +27°C° 0 mm 5 mps 752 mmHg 92%
    22:00 +27°C° 0 mm 5 mps 752 mmHg 92%
    23:00 +26°C° 0 mm 5 mps 753 mmHg 91%

    2 Junio, Martes

    Tiempo Temperatura Precipitaciones Viento Presión Humedad
    00:00 +26°C° 0 mm 5 mps 752 mmHg 89%
    01:00 +26°C° 0 mm 5 mps 752 mmHg 88%
    02:00 +26°C° 0 mm 5 mps 751 mmHg 86%
    03:00 +26°C° 0 mm 5 mps 751 mmHg 84%
    04:00 +26°C° 0 mm 5 mps 751 mmHg 83%
    05:00 +26°C° 0 mm 5 mps 751 mmHg 81%
    06:00 +27°C° 0 mm 4 mps 752 mmHg 77%
    07:00 +28°C° 0 mm 4 mps 752 mmHg 74%
    08:00 +29°C° 0 mm 3 mps 753 mmHg 70%
    09:00 +31°C° 0 mm 3 mps 753 mmHg 65%
    10:00 +33°C° 0 mm 3 mps 753 mmHg 59%
    11:00 +35°C° 0 mm 2 mps 753 mmHg 54%
    12:00 +34°C° 0 mm 3 mps 752 mmHg 58%
    13:00 +34°C° 0 mm 3 mps 751 mmHg 62%
    14:00 +34°C° 0 mm 3 mps 751 mmHg 65%
    15:00 +33°C° 0 mm 4 mps 750 mmHg 68%
    16:00 +32°C° 0 mm 4 mps 750 mmHg 72%
    17:00 +30°C° 0 mm 5 mps 749 mmHg 75%
    18:00 +29°C° 0 mm 5 mps 750 mmHg 80%
    19:00 +28°C° 0 mm 5 mps 750 mmHg 84%
    20:00 +27°C° 0 mm 5 mps 751 mmHg 88%
    21:00 +26°C° 0 mm 5 mps 751 mmHg 87%
    22:00 +26°C° 0 mm 5 mps 752 mmHg 85%
    23:00 +26°C° 0 mm 4 mps 752 mmHg 84%
    Mostrar más